Showing default

ORBCOMM FM 19, 25415

Orbit data source: Space-Track

ORBCOMM FM 19, 25415 is a payload satellite owned by Orbcomm (US) in LEO that was launched on Sun, 02 Aug 1998 UTC via a PEGASUS XL/HAPS launch vehicle from the Pegasus Launch, Eastern Range Air Space (ERAS). Payload-class satellites include a variety of spacecraft equipped with specific instruments for various scientific and technological missions. These include communications satellites like Starlink; space stations such as the ISS; scientific satellites like the Hubble; Earth observation satellites from companies like Planet Labs, Umbra, and HawkEye 360; GPS; miniature CubeSats for education and research; and military/defense satellites.

Loading next visibility...
Identifier
25415, 1998-046C
Orbit
LEO
Country
Flag of USUS / ORB
Related business
Manufacturer
OSC-Germantown
Mission
Operational Commercial Communications
Bus & Motor
MICROSTAR, Unknown motor
Mass
42 kg wet, 42 kg dry
Launch date (UTC)
1998-08-02 (27 years ago)
Launch vehicle
PEGASUS XL/HAPS
Launch site
Pegasus Launch, Eastern Range Air Space (ERAS)
Object type
Payload
Rocket body
Debris
Shape & HBR
Cyl + 2 Pan, 4.2 m
Radar Cross Section
1.484 m², Medium (>0.1 m² and < 1m²)

Expand to show TLE details & history
Last TLE update: 1 day ago

TLE from 1 day ago
0 ORBCOMM FM 19
1 25415U 98046C   25293.75363895  .00002049  00000-0  70679-3 0  9998
2 25415  44.9946 301.0883 0004189 225.3936 304.2785 14.38743494422284
Epoch: 2025-10-20T18:05Z
TLE epoch observation values (Epoch: 2025-10-20T18:05:14.405Z)
Latitude
7.29321°
Longitude
173.01191°
Altitude
760.317 km
Speed
7.477 km/s
True Right ascension
07h 35m 05s
True Declination
7° 15' 00"
Sunlit
Object was in daylight at epoch
Visualization orbit readout
Latitude
Unknown
Longitude
Unknown
Altitude
Unknown
Speed
Unknown
Apparent Right ascension
Unknown
Apparent Declination
Unknown
Sunlit
N/A
Visualization observer readout
Local Sidereal Time
12:47:38
Azimuth
Unknown
Elevation
Unknown
Doppler factor
Unknown
Orbital elements
Apogee altitude
767.192 km
Perigee altitude
761.208 km
Semi-major axis
7,142.337 km
Eccentricity
0.00042
Inclination
44.9946°
RAAN
301.0883°
Arg. of periapsis
225.3936°
True anomaly
304.23882°
Mean anomaly
304.2785°
Eccentric anomaly
304.25866°
Mean motion
3.59569 °/min
Orbital period
100.12 mins
BSTAR
0.00070679
Loading maneuver chart data...
Computing Atmospheric mass density...

Documentation

Showing up to 5 results
|